Tracking 18673 objects as of 26-June-2017
HD Live streaming from Space Station
objects crossing your sky now

TERRIERS

Track TERRIERS now!
10-day predictions
TERRIERS is classified as:


NORAD ID: 25735
Int'l Code: 1999-026A
Perigee: 434.4 km
Apogee: 440.6 km
Inclination: 97.2 °
Period: 93.2 minutes
Semi major axis: 6808 km
RCS: 0.4968 m2 (medium)
Launch date: May 18, 1999
Source: United States (US)
Launch site: Pegasus launched from Western Range Air Space (WRAS)
Your satellite tracking list
Your tracking list is empty





NASA's NSSDC Master Catalog

Two Line Element Set (TLE):
1 25735U 99026A   17176.59466046 +.00001479 +00000-0 +32820-4 0  9990
2 25735 097.1825 342.2795 0004534 005.9945 354.1358 15.45339952007536
Source of the keplerian elements: AFSPC